�N����,����,�~����,�C��,���x,�C��,����,���ϕ���,�ő�u�ԕ���,�ő厞����,���˗�,�I�_���x,�n�����x,�ő啗���N��,DTYPE
"24/01/11","00:10",0.0,3.5,80.4,1008.1,280.5,1.1,2.2,331.9,0.00,0.5,6.3,"00:02:56",1
"24/01/11","00:20",0.0,3.7,81.5,1008.1,323.5,1.7,3.4,330.2,0.00,0.9,6.2,"00:15:00",1
"24/01/11","00:30",0.0,3.4,82.3,1007.8,278.6,1.2,2.0,196.2,0.00,0.7,6.0,"00:26:40",1
"24/01/11","00:40",0.0,3.0,82.8,1007.6,324.8,1.6,2.9,340.1,0.00,0.4,6.2,"00:39:16",1
"24/01/11","00:50",0.0,2.6,83.4,1006.9,319.2,1.7,3.1,319.7,0.00,0.1,6.0,"00:45:44",1
"24/01/11","01:00",0.0,2.1,84.4,1006.7,287.6,1.2,2.2,202.6,0.00,-0.2,6.2,"00:57:52",1
"24/01/11","01:10",0.0,2.7,85.7,1006.9,286.8,1.3,2.8,331.9,0.00,0.6,6.1,"01:08:00",1
"24/01/11","01:20",0.0,4.0,85.0,1006.9,330.9,2.3,5.9,339.4,0.00,1.8,6.2,"01:13:44",1
"24/01/11","01:30",0.0,4.2,83.5,1007.1,319.3,1.8,3.9,320.5,0.00,1.7,6.0,"01:20:48",1
"24/01/11","01:40",0.0,4.2,82.0,1007.6,287.2,1.1,2.1,347.5,0.00,1.4,6.0,"01:33:00",1
"24/01/11","01:50",0.0,3.9,81.2,1007.8,317.4,1.6,2.4,324.2,0.00,1.0,6.0,"01:44:48",1
"24/01/11","02:00",0.0,3.3,81.0,1008.1,254.4,0.7,2.1,311.5,0.00,0.4,6.2,"01:52:56",1
"24/01/11","02:10",0.0,2.9,81.9,1007.8,306.4,1.5,2.9,334.4,0.00,0.2,6.1,"02:04:00",1
"24/01/11","02:20",0.0,2.6,83.0,1007.8,299.5,0.8,2.0,330.7,0.00,0.0,5.9,"02:16:16",1
"24/01/11","02:30",0.0,2.3,84.0,1007.1,286.1,1.2,2.5,319.5,0.00,-0.1,5.8,"02:21:08",1
"24/01/11","02:40",0.0,2.2,85.4,1007.1,300.6,1.3,2.7,336.0,0.00,0.0,5.9,"02:39:28",1
"24/01/11","02:50",0.0,2.7,86.2,1006.9,307.6,1.5,3.3,324.4,0.00,0.7,5.9,"02:47:52",1
"24/01/11","03:00",0.0,3.4,86.1,1007.1,310.3,1.6,4.1,326.0,0.00,1.3,5.7,"02:50:48",1
"24/01/11","03:10",0.0,3.2,85.8,1006.4,328.1,1.1,2.6,333.4,0.00,1.1,5.7,"03:05:20",1
"24/01/11","03:20",0.0,3.7,85.4,1006.9,307.3,1.8,4.7,251.5,0.00,1.5,5.6,"03:15:14",1
"24/01/11","03:30",0.0,3.4,84.7,1006.4,280.4,0.7,1.8,301.6,0.00,1.1,5.7,"03:27:46",1
"24/01/11","03:40",0.0,4.2,84.0,1007.1,300.0,2.5,4.8,323.8,0.00,1.8,6.0,"03:36:52",1
"24/01/11","03:50",0.0,4.7,82.2,1007.1,293.2,2.3,4.7,303.2,0.00,2.0,5.8,"03:46:12",1
"24/01/11","04:00",0.0,5.0,79.9,1007.1,318.6,3.7,7.5,300.7,0.00,1.9,5.8,"03:52:28",1
"24/01/11","04:10",0.0,5.0,78.4,1006.9,313.6,3.4,5.1,320.0,0.00,1.6,5.7,"04:05:22",1
"24/01/11","04:20",0.0,5.1,77.2,1007.1,308.5,3.1,6.2,292.2,0.00,1.5,5.9,"04:19:06",1
"24/01/11","04:30",0.0,5.2,76.4,1007.1,302.0,3.2,6.7,315.8,0.00,1.4,5.8,"04:25:14",1
"24/01/11","04:40",0.0,5.0,76.2,1006.7,328.5,2.5,5.4,312.4,0.00,1.2,5.7,"04:30:16",1
"24/01/11","04:50",0.0,4.4,76.9,1006.9,278.9,1.7,3.9,301.1,0.00,0.7,5.6,"04:49:36",1
"24/01/11","05:00",0.0,4.7,77.6,1006.9,310.6,2.6,4.7,309.6,0.00,1.2,6.0,"04:56:10",1
"24/01/11","05:10",0.0,5.1,77.4,1006.2,313.1,2.8,7.0,299.4,0.00,1.5,5.8,"05:03:18",1
"24/01/11","05:20",0.0,4.6,77.2,1006.4,295.1,1.6,2.6,301.5,0.00,1.0,5.6,"05:10:58",1
"24/01/11","05:30",0.0,4.7,77.8,1006.7,314.6,1.8,4.8,333.5,0.00,1.2,5.8,"05:24:42",1
"24/01/11","05:40",0.0,4.9,77.7,1006.7,297.1,1.6,3.2,278.6,0.00,1.4,5.8,"05:34:14",1
"24/01/11","05:50",0.0,5.2,77.4,1006.4,316.6,2.2,5.9,264.8,0.00,1.6,5.9,"05:48:26",1
"24/01/11","06:00",0.0,5.4,76.2,1006.7,308.5,2.7,5.1,288.2,0.00,1.6,5.7,"05:50:08",1
"24/01/11","06:10",0.0,5.3,75.8,1006.7,315.0,2.2,5.7,339.1,0.00,1.4,5.8,"06:03:32",1
"24/01/11","06:20",0.0,5.3,75.8,1006.7,303.1,2.7,5.9,275.9,0.00,1.4,5.7,"06:13:58",1
"24/01/11","06:30",0.0,5.1,76.6,1007.1,314.4,2.2,4.5,328.8,0.00,1.4,5.7,"06:23:46",1
"24/01/11","06:40",0.0,5.1,77.0,1007.6,317.7,1.2,2.4,303.8,0.00,1.4,5.7,"06:34:10",1
"24/01/11","06:50",0.0,4.4,77.7,1007.4,313.6,1.7,4.3,322.1,0.00,0.9,5.7,"06:44:28",1
"24/01/11","07:00",0.0,4.1,79.1,1007.4,291.3,1.8,2.7,266.4,0.00,0.8,5.8,"06:56:58",1
"24/01/11","07:10",0.0,4.3,80.5,1007.4,319.7,1.7,3.5,315.5,0.00,1.3,5.7,"07:05:24",1
"24/01/11","07:20",0.0,4.3,81.1,1007.4,327.5,1.7,4.7,308.0,0.00,1.4,5.8,"07:16:52",1
"24/01/11","07:30",0.0,3.9,81.7,1007.6,205.6,0.6,1.4,175.5,0.00,1.1,5.8,"07:28:58",1
"24/01/11","07:40",0.0,3.7,83.1,1007.8,144.3,0.7,2.0,100.7,0.00,1.1,5.5,"07:32:04",1
"24/01/11","07:50",0.0,3.5,84.1,1008.1,224.1,0.5,1.4,268.6,0.00,1.1,5.7,"07:40:02",1
"24/01/11","08:00",0.0,3.3,85.1,1007.8,279.1,1.0,1.4,265.3,0.02,1.1,5.8,"07:50:16",1
"24/01/11","08:10",0.0,3.4,85.7,1007.6,249.4,0.5,1.4,306.6,0.03,1.3,5.6,"08:09:26",1
"24/01/11","08:20",0.0,3.5,86.5,1008.1,211.3,0.8,1.9,174.8,0.03,1.5,5.7,"08:15:36",1
"24/01/11","08:30",0.0,3.6,87.2,1007.8,313.9,0.7,1.8,307.5,0.04,1.7,5.8,"08:25:04",1
"24/01/11","08:40",0.0,3.7,87.6,1008.3,264.6,0.8,1.4,264.3,0.04,1.9,5.6,"08:37:26",1
"24/01/11","08:50",0.0,3.9,88.0,1008.3,282.9,1.3,1.7,302.2,0.05,2.1,5.5,"08:46:24",1
"24/01/11","09:00",0.0,4.0,88.3,1008.3,300.7,1.3,2.1,319.3,0.07,2.3,5.7,"08:55:44",1
"24/01/11","09:10",0.0,4.3,88.4,1008.6,280.2,1.0,1.7,297.4,0.09,2.6,5.7,"09:01:28",1
"24/01/11","09:20",0.0,4.5,88.6,1008.8,263.4,0.6,1.2,290.5,0.12,2.8,5.9,"09:15:28",1
"24/01/11","09:30",0.0,4.7,88.4,1009.0,256.7,0.7,1.3,286.8,0.14,3.0,5.7,"09:24:00",1
"24/01/11","09:40",0.0,5.0,88.4,1009.5,192.8,0.7,1.4,98.6,0.14,3.3,5.8,"09:31:36",1
"24/01/11","09:50",0.0,5.2,87.9,1009.7,230.1,0.7,2.1,223.7,0.18,3.4,5.7,"09:45:12",1
"24/01/11","10:00",0.0,5.6,87.5,1009.7,202.1,0.8,2.1,264.7,0.19,3.7,6.1,"09:59:44",1
"24/01/11","10:10",0.0,6.0,87.0,1009.5,254.5,1.0,2.4,262.0,0.25,4.0,5.7,"10:00:24",1
"24/01/11","10:20",0.0,6.1,85.6,1010.0,220.0,1.1,3.1,219.7,0.25,3.9,5.9,"10:19:04",1
"24/01/11","10:30",0.0,6.4,84.6,1009.7,230.8,1.0,2.4,229.3,0.23,4.0,6.0,"10:24:48",1
"24/01/11","10:40",0.0,6.6,83.6,1010.0,231.8,0.7,1.7,241.6,0.21,4.1,6.1,"10:35:52",1
"24/01/11","10:50",0.0,6.9,82.3,1009.7,217.2,1.0,2.0,127.0,0.24,4.1,6.1,"10:48:00",1
"24/01/11","11:00",0.0,7.3,81.2,1010.0,236.3,1.1,2.6,253.3,0.28,4.3,6.2,"10:54:56",1
"24/01/11","11:10",0.0,7.7,79.8,1009.5,245.4,1.1,1.8,258.9,0.30,4.5,6.2,"11:03:20",1
"24/01/11","11:20",0.0,8.4,77.9,1009.3,240.5,0.8,1.2,297.2,0.34,4.8,6.4,"11:13:22",1
"24/01/11","11:30",0.0,8.6,75.1,1009.3,240.8,0.6,1.4,235.4,0.22,4.5,6.3,"11:20:48",1
"24/01/11","11:40",0.0,8.6,74.1,1009.3,220.0,1.2,2.9,219.6,0.23,4.3,6.3,"11:39:40",1
"24/01/11","11:50",0.0,9.3,72.7,1009.3,234.5,1.0,2.4,220.1,0.38,4.7,6.4,"11:40:08",1
"24/01/11","12:00",0.0,9.3,70.2,1009.0,242.1,2.1,3.5,247.5,0.32,4.2,6.6,"11:58:12",1
"24/01/11","12:10",0.0,10.1,68.5,1009.0,225.6,1.0,2.5,249.3,0.35,4.6,6.7,"12:02:20",1
"24/01/11","12:20",0.0,9.9,67.6,1009.3,139.5,1.8,2.8,137.3,0.32,4.2,6.6,"12:11:30",1
"24/01/11","12:30",0.0,10.2,66.5,1008.8,280.5,1.0,2.0,249.4,0.31,4.3,6.7,"12:27:20",1
"24/01/11","12:40",0.0,10.5,63.0,1008.6,352.5,2.3,4.0,20.2,0.32,3.8,6.8,"12:38:40",1
"24/01/11","12:50",0.0,10.1,60.5,1008.8,334.4,2.6,4.9,335.6,0.24,2.9,6.9,"12:44:38",1
"24/01/11","13:00",0.0,10.1,60.2,1008.6,345.1,2.5,4.8,350.7,0.22,2.8,6.9,"12:53:14",1
"24/01/11","13:10",0.0,10.6,59.5,1008.6,337.0,2.8,5.4,335.2,0.40,3.1,7.1,"13:00:34",1
"24/01/11","13:20",0.0,11.1,57.5,1008.6,338.1,2.7,4.8,314.7,0.47,3.1,6.9,"13:13:12",1
"24/01/11","13:30",0.0,11.6,54.9,1008.6,340.0,1.6,3.9,8.9,0.46,2.9,7.3,"13:27:40",1
"24/01/11","13:40",0.0,11.6,53.1,1008.3,333.5,2.0,3.9,317.1,0.43,2.4,7.3,"13:34:24",1
"24/01/11","13:50",0.0,11.8,52.6,1008.3,352.0,2.1,4.1,325.9,0.41,2.5,7.5,"13:44:34",1
"24/01/11","14:00",0.0,11.7,51.0,1007.8,353.0,2.7,4.8,322.7,0.39,1.9,7.5,"13:54:02",1
"24/01/11","14:10",0.0,11.9,52.0,1007.8,358.2,2.2,3.5,348.0,0.37,2.4,7.3,"14:02:04",1
"24/01/11","14:20",0.0,12.3,49.6,1007.8,350.6,1.3,3.4,15.2,0.35,2.1,7.6,"14:17:40",1
"24/01/11","14:30",0.0,12.4,49.8,1007.8,344.3,1.8,4.4,310.1,0.33,2.3,7.7,"14:29:16",1
"24/01/11","14:40",0.0,12.4,52.2,1007.8,289.0,1.8,3.7,333.1,0.31,2.9,7.7,"14:37:26",1
"24/01/11","14:50",0.0,12.2,52.9,1008.1,246.2,2.7,5.2,234.6,0.29,2.9,7.7,"14:42:08",1
"24/01/11","15:00",0.0,12.0,52.0,1008.1,257.0,2.5,4.4,246.8,0.27,2.5,7.9,"14:59:36",1
"24/01/11","15:10",0.0,12.0,52.4,1007.6,258.0,2.5,5.1,215.6,0.24,2.6,8.0,"15:02:36",1
"24/01/11","15:20",0.0,11.9,52.7,1007.8,263.7,2.6,4.1,249.6,0.22,2.6,7.8,"15:18:04",1
"24/01/11","15:30",0.0,11.8,53.0,1008.1,275.3,2.6,4.2,251.1,0.19,2.6,8.1,"15:24:44",1
"24/01/11","15:40",0.0,11.4,53.0,1008.1,268.0,2.7,4.8,241.1,0.17,2.2,8.2,"15:37:06",1
"24/01/11","15:50",0.0,11.5,53.1,1007.8,274.3,2.3,4.8,272.1,0.14,2.3,8.1,"15:41:42",1
"24/01/11","16:00",0.0,11.4,52.5,1007.8,283.0,2.2,4.3,269.3,0.11,2.1,8.4,"15:59:40",1
"24/01/11","16:10",0.0,11.1,52.9,1008.1,289.4,2.8,4.9,313.6,0.09,1.9,8.2,"16:00:40",1
"24/01/11","16:20",0.0,10.9,52.6,1008.1,278.9,2.6,4.0,281.5,0.06,1.6,8.2,"16:12:40",1
"24/01/11","16:30",0.0,10.3,53.7,1008.1,281.0,2.8,4.1,291.9,0.01,1.4,8.1,"16:27:32",1
"24/01/11","16:40",0.0,9.7,55.2,1008.3,291.3,2.7,3.7,303.4,0.00,1.2,8.3,"16:39:12",1
"24/01/11","16:50",0.0,9.6,55.9,1008.3,289.8,2.5,4.2,305.0,0.00,1.3,8.3,"16:40:32",1
"24/01/11","17:00",0.0,9.4,57.0,1008.3,299.6,2.3,3.7,272.3,0.00,1.4,8.3,"16:51:44",1
"24/01/11","17:10",0.0,8.8,60.2,1008.3,319.2,2.5,3.6,317.9,0.00,1.6,8.2,"17:09:44",1
"24/01/11","17:20",0.0,8.1,63.0,1008.3,322.3,2.6,3.9,317.0,0.00,1.5,8.0,"17:18:48",1
"24/01/11","17:30",0.0,7.5,65.3,1008.6,318.3,2.8,3.7,319.4,0.00,1.5,8.1,"17:25:44",1
"24/01/11","17:40",0.0,7.0,68.1,1008.1,287.4,2.8,3.5,301.3,0.00,1.6,8.1,"17:31:44",1
"24/01/11","17:50",0.0,6.4,70.2,1008.3,282.2,2.1,2.9,269.8,0.00,1.4,8.0,"17:40:48",1
"24/01/11","18:00",0.0,6.1,72.1,1008.1,281.2,2.8,3.9,279.7,0.00,1.5,7.9,"17:59:24",1
"24/01/11","18:10",0.0,6.0,73.0,1008.1,284.0,3.0,4.0,298.1,0.00,1.6,8.1,"18:04:44",1
"24/01/11","18:20",0.0,5.8,73.7,1008.6,294.3,2.8,3.9,312.8,0.00,1.5,8.1,"18:18:54",1
"24/01/11","18:30",0.0,5.8,74.3,1008.3,320.8,3.0,4.7,306.7,0.00,1.6,7.8,"18:24:06",1
"24/01/11","18:40",0.0,4.8,74.9,1008.6,322.4,2.1,3.4,308.9,0.00,0.8,8.0,"18:32:52",1
"24/01/11","18:50",0.0,4.6,76.1,1008.1,285.5,1.6,2.2,287.7,0.00,0.8,7.9,"18:49:36",1
"24/01/11","19:00",0.0,4.6,77.2,1008.6,283.2,2.0,2.1,285.3,0.00,1.0,7.7,"18:50:56",1
"24/01/11","19:10",0.0,4.1,78.2,1008.6,326.7,2.1,2.6,311.9,0.00,0.7,7.9,"19:00:52",1
"24/01/11","19:20",0.0,3.5,79.8,1008.6,310.7,1.8,2.2,325.2,0.00,0.4,7.6,"19:13:28",1
"24/01/11","19:30",0.0,3.7,80.7,1008.6,317.3,2.1,2.7,331.7,0.00,0.7,7.4,"19:22:56",1
"24/01/11","19:40",0.0,3.7,81.7,1008.6,305.1,1.7,2.7,308.6,0.00,0.9,7.6,"19:36:56",1
"24/01/11","19:50",0.0,3.6,82.7,1008.8,291.1,1.3,2.0,317.3,0.00,1.0,7.7,"19:41:30",1
"24/01/11","20:00",0.0,3.6,83.5,1008.3,298.1,2.0,3.1,312.2,0.00,1.1,7.5,"19:56:38",1
"24/01/11","20:10",0.0,3.4,84.1,1008.8,319.3,1.7,3.4,303.9,0.00,1.0,7.4,"20:00:54",1
"24/01/11","20:20",0.0,2.7,84.7,1009.0,324.2,1.6,2.0,323.5,0.00,0.4,7.5,"20:10:38",1
"24/01/11","20:30",0.0,2.4,85.5,1009.0,325.4,1.5,2.0,319.3,0.00,0.3,7.2,"20:22:54",1
"24/01/11","20:40",0.0,2.2,86.3,1008.8,303.4,1.3,2.0,324.5,0.00,0.2,7.3,"20:36:40",1
"24/01/11","20:50",0.0,2.5,87.0,1008.8,294.7,1.8,2.0,263.8,0.00,0.6,7.2,"20:40:48",1
"24/01/11","21:00",0.0,2.2,87.5,1008.8,319.7,1.6,2.4,316.3,0.00,0.4,7.2,"20:58:24",1
"24/01/11","21:10",0.0,1.8,88.4,1008.6,288.2,1.5,2.1,315.3,0.00,0.1,7.1,"21:09:04",1
"24/01/11","21:20",0.0,2.1,88.9,1009.0,322.6,2.0,2.6,337.1,0.00,0.5,7.0,"21:16:00",1
"24/01/11","21:30",0.0,1.6,89.2,1008.6,304.9,1.0,1.7,347.9,0.00,0.1,6.9,"21:20:08",1
"24/01/11","21:40",0.0,1.2,89.8,1008.3,315.1,1.7,2.0,316.8,0.00,-0.2,7.1,"21:35:04",1
"24/01/11","21:50",0.0,0.7,90.4,1008.3,326.9,1.8,2.4,319.3,0.00,-0.6,6.9,"21:42:08",1
"24/01/11","22:00",0.0,0.7,91.0,1008.6,310.7,1.6,2.4,329.0,0.00,-0.6,7.0,"21:59:36",1
"24/01/11","22:10",0.0,0.9,91.2,1008.3,312.2,1.7,2.2,312.5,0.00,-0.3,7.0,"22:01:20",1
"24/01/11","22:20",0.0,0.7,91.6,1008.1,313.3,1.5,2.0,314.1,0.00,-0.5,6.7,"22:16:32",1
"24/01/11","22:30",0.0,0.6,91.8,1008.3,319.0,1.7,2.0,323.0,0.00,-0.5,6.8,"22:25:44",1
"24/01/11","22:40",0.0,0.3,92.3,1007.8,314.3,1.6,2.0,316.3,0.00,-0.8,6.7,"22:35:04",1
"24/01/11","22:50",0.0,0.0,92.6,1007.6,302.3,1.3,1.9,323.2,0.00,-1.0,6.7,"22:40:08",1
"24/01/11","23:00",0.0,0.4,92.9,1008.1,299.8,1.6,1.8,310.1,0.00,-0.6,6.7,"22:51:12",1
"24/01/11","23:10",0.0,0.5,93.1,1008.1,300.2,1.2,2.0,316.7,0.00,-0.4,6.4,"23:04:32",1
"24/01/11","23:20",0.0,0.0,93.3,1008.3,319.7,2.0,2.4,323.4,0.00,-0.9,6.4,"23:13:20",1
"24/01/11","23:30",0.0,-0.3,93.8,1008.3,320.0,1.8,2.2,320.8,0.00,-1.1,6.5,"23:22:08",1
"24/01/11","23:40",0.0,-0.5,94.1,1008.3,294.7,0.8,2.2,325.9,0.00,-1.3,6.2,"23:30:02",1
"24/01/11","23:50",0.0,-0.7,94.3,1008.3,324.5,2.0,2.8,322.2,0.00,-1.5,6.3,"23:42:40",1
"24/01/11","24:00",0.0,-0.7,94.7,1008.1,312.4,1.7,2.2,322.0,0.00,-1.4,6.2,"23:57:44",1
